IRIDIUM 5

Last updated on Wed Nov 29 2017 00:19:02 GMT+0000 (Coordinated Universal Time)

1 24795U 97020D 17332.28930220 .00000415 00000-0 42648-4 0 9995 2 24795 86.3996 249.9191 0141057 140.5187 220.6417 14.79785386 76844
UTC large
Height (km)
Speed (km/s)
/
Latitude / Longitude
Inclination (degrees)
Orbital Period (minutes)
Azimuth
Elevation
Range (km)
Doppler Factor

Next 0 passes for location: London (51.5072 / 0.1276)

Sorry there are no passes over London.
IRIDIUM 5